Home > Weather > Omaha > Past weeks

Flag for USA Weather for the Past 2 Weeks in Omaha, Nebraska, USA

Now
45 °F

Drizzle. Low clouds.


Feels Like: 43 °F
Forecast: 44 / 52 °F
Wind: 5 mph from Northeast

Location: Millard Airport

Current Time: May 1, 2016 at 5:34:07 AM

Latest Report: May 1, 2016 at 5:15 AM


Visibility: 10 mi

Pressure: 29.94 "Hg

Humidity: 95%

Dew Point: 44 °F

Location of OmahaLocation

Historic Weather in Omaha — Graph

°F

Omaha Temperature Yesterday

Maximum temperature yesterday: 51 °F (at 4:55 PM)
Minimum temperature yesterday: 46 °F (at 6:55 AM)
Average temperature yesterday: 48 °F

High & Low Weather Summary for the Past Weeks

 TemperatureHumidityPressure
High81 °F (Apr 24, 3:35 PM)95% (Apr 18, 6:35 AM)30.24 "Hg (Apr 18, 6:35 AM)
Low45 °F (Apr 29, 6:15 AM)40% (Apr 23, 4:15 PM)29.46 "Hg (Apr 27, 2:15 PM)
Average58 °F76%29.91 "Hg
* Reported Apr 16 4:15 AM — May 1 4:15 AM, Omaha, Weather by CustomWeather, © 2016

Note: Actual official high and low records may vary slightly from our data, if they occured in-between our weather recording intervals... More about our weather records

Advertising

Omaha Weather History for the Previous 24 Hours

Scroll right to see more
 ConditionsComfort  
Time TempWeatherWind HumidityBarometerVisibility
4:15 AM
Sun, May 1
46 °FLow clouds.3 mph95%29.93 "Hg7 mi
3:55 AM46 °FLow clouds.8 mph95%29.92 "Hg7 mi
3:35 AM46 °FLow clouds.5 mph94%29.92 "Hg10 mi
3:15 AM47 °FDrizzle. Low clouds.5 mph95%29.92 "Hg10 mi
2:55 AM47 °FDrizzle. Low clouds.7 mph95%29.91 "Hg10 mi
1:55 AM48 °FDrizzle. Low clouds.6 mph95%29.91 "Hg4 mi
1:15 AM48 °FDrizzle. Low clouds.5 mph95%29.90 "Hg5 mi
12:55 AM48 °FDrizzle. Low clouds.7 mph95%29.89 "Hg4 mi
12:15 AM49 °FDrizzle. Low clouds.7 mph95%29.89 "Hg5 mi
11:15 PM
Sat, Apr 30
49 °FDrizzle. Low clouds.3 mph95%29.87 "Hg4 mi
10:55 PM49 °FDrizzle. Low clouds.7 mph95%29.87 "Hg5 mi
10:15 PM50 °FDrizzle. Low clouds.3 mph95%29.85 "Hg5 mi
9:15 PM50 °FDrizzle. Low clouds.6 mph94%29.83 "Hg7 mi
8:55 PM50 °FDrizzle. Low clouds.5 mph92%29.83 "Hg5 mi
8:15 PM50 °FLow clouds.5 mph91%29.81 "Hg10 mi
7:55 PM50 °FLow clouds.6 mph92%29.81 "Hg10 mi
7:35 PM50 °FLow clouds.6 mph92%29.81 "Hg10 mi
7:15 PM50 °FLow clouds.No wind93%29.79 "Hg10 mi
6:55 PM50 °FLow clouds.5 mph93%29.79 "Hg10 mi
6:15 PM51 °FLow clouds.5 mph93%29.79 "Hg7 mi
5:55 PM50 °FLow clouds.5 mph93%29.78 "Hg10 mi
5:15 PM51 °FFog.7 mph94%29.77 "Hg5 mi
4:55 PM51 °FFog.6 mph94%29.76 "Hg4 mi
4:35 PM50 °FFog.5 mph94%29.76 "Hg5 mi
4:15 PM50 °FFog.No wind94%29.76 "Hg2 mi
3:55 PM50 °FFog.No wind94%29.76 "Hg2 mi
3:15 PM50 °FFog.5 mph93%29.75 "Hg5 mi
2:55 PM49 °FLow clouds.5 mph93%29.75 "Hg7 mi
2:35 PM49 °FLow clouds.5 mph93%29.74 "Hg7 mi
2:15 PM49 °FLow clouds.6 mph94%29.73 "Hg7 mi
1:55 PM49 °FLow clouds.3 mph94%29.73 "Hg7 mi
1:35 PM49 °FFog.8 mph94%29.72 "Hg2 mi
1:15 PM49 °FLight rain. Low clouds.7 mph94%29.72 "Hg3 mi
12:55 PM49 °FFog.7 mph94%29.72 "Hg4 mi
12:35 PM49 °FFog.5 mph94%29.72 "Hg3 mi
12:15 PM49 °FFog.7 mph94%29.71 "Hg4 mi
11:55 AM48 °FDrizzle. Low clouds.3 mph94%29.71 "Hg2 mi
11:35 AM48 °FDrizzle. Low clouds.6 mph94%29.71 "Hg3 mi
11:15 AM47 °FDrizzle. Low clouds.7 mph94%29.71 "Hg3 mi
10:55 AM47 °FDrizzle. Low clouds.8 mph94%29.71 "Hg5 mi
10:35 AM47 °FDrizzle. Low clouds.3 mph95%29.71 "Hg5 mi
10:15 AM47 °FDrizzle. Low clouds.6 mph94%29.70 "Hg4 mi
9:55 AM46 °FDrizzle. Low clouds.No wind94%29.70 "Hg4 mi
9:35 AM46 °FDrizzle. Low clouds.3 mph94%29.70 "Hg4 mi
9:15 AM46 °FDrizzle. Overcast.3 mph93%29.71 "Hg7 mi
8:55 AM46 °FLight rain. Mostly cloudy.7 mph93%29.72 "Hg3 mi
8:35 AM46 °FLight rain. Low clouds.3 mph93%29.74 "Hg1 mi
8:10 AM46 °FRain. Low clouds.6 mph93%29.73 "Hg5 mi
7:55 AM46 °FRain. Low clouds.6 mph93%29.72 "Hg4 mi
7:35 AM46 °FLight rain. Low clouds.7 mph93%29.71 "Hg7 mi
7:15 AM46 °FRain. Low clouds.7 mph93%29.71 "Hg7 mi
6:55 AM46 °FLight rain. Low clouds.7 mph92%29.71 "Hg3 mi
6:35 AM46 °FLight rain. Low clouds.6 mph91%29.71 "Hg3 mi
6:15 AM46 °FLight rain. Low clouds.8 mph91%29.71 "Hg3 mi
5:55 AM46 °FLight rain. Overcast.8 mph91%29.72 "Hg2 mi
5:15 AM46 °FRain. Low clouds.8 mph90%29.74 "Hg10 mi
Weather by CustomWeather, © 2016

See weather overviewHow to use our weather pages